Simultaneous Nadir Overpasses (SNOs) Predictions

Prediction of SNOs between GOES-15 and METOP-A Satellite Orbit:

Table of predicted SNOs for the next 14.0 days since TLE Epoch: 1/14/2017
Index Date Time (GOES-15) GOES-15 Lat,Lon METOP-A Lat,Lon Distance(km) Time Diff (sec)
1 01/14/2017 06:32:46 0.02,-134.90 -0.13,-135.46 63.98 80
2 01/16/2017 18:30:59 -0.01,-134.96 0.01,-135.03 7.37 80
3 01/19/2017 06:26:40 0.01,-135.09 0.12,-134.63 52.18 80
4 01/20/2017 18:48:11 0.00,-135.11 0.93,-139.19 465.49 80
5 01/21/2017 18:24:52 -0.01,-135.14 -0.24,-134.21 107.17 80
6 01/23/2017 06:46:32 -0.00,-135.22 -0.80,-138.79 407.13 80
7 01/24/2017 06:23:12 0.01,-135.25 0.31,-133.80 164.90 80
8 01/25/2017 18:44:45 0.00,-135.25 0.67,-138.37 354.20 80
9 01/26/2017 18:21:25 -0.00,-135.28 -0.45,-133.37 217.70 80




NCC Satellite Simultaneous Nadir Overpasses (SNOs) Prediction Service
